When you browse on this site, cookies collect data to enhance your experience and personalize the content and advertising you see.
Visit our Privacy Policy to learn more. By continuing to use the site, you agree to this use of cookies and data.
  • En España
  • Lista de países
  • Para 7 días
  • Temperatura del agua
  • El tiempo en el mapa
  • Informadores
  • user-avatar
    Iniciar sesión

    Tiempo cada hora Leganés

    Hoy, 17 Octubre, Jueves

    Tiempo Temperatura Precipitaciones Viento Presión Humedad
    00:00 +13°C° 0 mm 2 mps 707 mmHg 66%
    01:00 +13°C° 0 mm 2 mps 706 mmHg 69%
    02:00 +12°C° 0 mm 2 mps 706 mmHg 73%
    03:00 +12°C° 0 mm 2 mps 705 mmHg 76%
    04:00 +12°C° 0 mm 2 mps 706 mmHg 78%
    05:00 +10°C° 0 mm 2 mps 706 mmHg 80%
    06:00 +10°C° 0 mm 3 mps 706 mmHg 79%
    07:00 +11°C° 0.2 mm 3 mps 706 mmHg 77%
    08:00 +12°C° 0.2 mm 3 mps 706 mmHg 76%
    09:00 +12°C° 0.2 mm 3 mps 707 mmHg 75%
    10:00 +13°C° 0.1 mm 3 mps 707 mmHg 71%
    11:00 +14°C° 0.1 mm 4 mps 707 mmHg 68%
    12:00 +14°C° 0 mm 3 mps 707 mmHg 71%
    13:00 +16°C° 0 mm 3 mps 707 mmHg 69%
    14:00 +17°C° 0 mm 4 mps 706 mmHg 67%
    15:00 +18°C° 0 mm 4 mps 706 mmHg 64%
    16:00 +17°C° 0 mm 4 mps 706 mmHg 69%
    17:00 +17°C° 0 mm 3 mps 706 mmHg 74%
    18:00 +16°C° 0 mm 3 mps 706 mmHg 78%
    19:00 +14°C° 0 mm 3 mps 706 mmHg 82%
    20:00 +14°C° 0 mm 3 mps 706 mmHg 85%
    21:00 +15°C° 0 mm 2 mps 707 mmHg 88%
    22:00 +15°C° 0 mm 2 mps 707 mmHg 88%
    23:00 +15°C° 0 mm 2 mps 706 mmHg 88%

    Mañana, 18 Octubre, Viernes

    Tiempo Temperatura Precipitaciones Viento Presión Humedad
    00:00 +15°C° 0 mm 2 mps 706 mmHg 88%
    01:00 +15°C° 0 mm 2 mps 706 mmHg 88%
    02:00 +15°C° 0 mm 2 mps 706 mmHg 88%
    03:00 +15°C° 0 mm 2 mps 706 mmHg 89%
    04:00 +15°C° 0 mm 2 mps 706 mmHg 90%
    05:00 +15°C° 0 mm 2 mps 706 mmHg 90%
    06:00 +15°C° 0 mm 2 mps 706 mmHg 91%
    07:00 +16°C° 0 mm 2 mps 706 mmHg 88%
    08:00 +17°C° 0 mm 3 mps 706 mmHg 85%
    09:00 +17°C° 0 mm 3 mps 706 mmHg 82%
    10:00 +18°C° 0.1 mm 4 mps 706 mmHg 77%
    11:00 +19°C° 0.1 mm 5 mps 706 mmHg 71%
    12:00 +20°C° 0.1 mm 6 mps 706 mmHg 66%
    13:00 +21°C° 0 mm 6 mps 705 mmHg 62%
    14:00 +21°C° 0 mm 6 mps 705 mmHg 59%
    15:00 +22°C° 0 mm 7 mps 704 mmHg 55%
    16:00 +21°C° 0 mm 6 mps 704 mmHg 59%
    17:00 +20°C° 0 mm 5 mps 703 mmHg 63%
    18:00 +19°C° 0 mm 4 mps 703 mmHg 67%
    19:00 +18°C° 0 mm 4 mps 703 mmHg 69%
    20:00 +17°C° 0 mm 4 mps 703 mmHg 72%
    21:00 +17°C° 0 mm 4 mps 703 mmHg 75%
    22:00 +15°C° 0 mm 4 mps 703 mmHg 76%
    23:00 +15°C° 0 mm 4 mps 703 mmHg 77%

    Pasado mañana, 19 Octubre, Sábado

    Tiempo Temperatura Precipitaciones Viento Presión Humedad
    00:00 +14°C° 0 mm 4 mps 703 mmHg 77%
    01:00 +14°C° 0 mm 4 mps 703 mmHg 76%
    02:00 +14°C° 0 mm 4 mps 702 mmHg 75%
    03:00 +13°C° 0 mm 4 mps 702 mmHg 74%
    04:00 +13°C° 0 mm 4 mps 702 mmHg 76%
    05:00 +12°C° 0 mm 4 mps 702 mmHg 77%
    06:00 +11°C° 0 mm 4 mps 701 mmHg 79%
    07:00 +12°C° 0 mm 4 mps 701 mmHg 75%
    08:00 +13°C° 0 mm 5 mps 702 mmHg 72%
    09:00 +13°C° 0 mm 5 mps 702 mmHg 68%
    10:00 +14°C° 0 mm 5 mps 702 mmHg 64%
    11:00 +15°C° 0 mm 5 mps 701 mmHg 60%
    12:00 +15°C° 0 mm 5 mps 701 mmHg 56%
    13:00 +16°C° 0 mm 5 mps 701 mmHg 55%
    14:00 +16°C° 0 mm 5 mps 700 mmHg 55%
    15:00 +16°C° 0 mm 5 mps 700 mmHg 54%
    16:00 +16°C° 0 mm 5 mps 700 mmHg 57%
    17:00 +15°C° 0 mm 4 mps 699 mmHg 60%
    18:00 +16°C° 0 mm 3 mps 699 mmHg 63%
    19:00 +14°C° 0.2 mm 4 mps 699 mmHg 64%
    20:00 +14°C° 0.2 mm 4 mps 699 mmHg 66%
    21:00 +14°C° 0.2 mm 4 mps 699 mmHg 68%
    22:00 +14°C° 1.3 mm 5 mps 699 mmHg 74%
    23:00 +13°C° 1.3 mm 5 mps 698 mmHg 80%

    20 Octubre, Domingo

    Tiempo Temperatura Precipitaciones Viento Presión Humedad
    00:00 +13°C° 1.3 mm 6 mps 698 mmHg 85%
    01:00 +12°C° 0.7 mm 5 mps 698 mmHg 83%
    02:00 +12°C° 0.7 mm 5 mps 698 mmHg 81%
    03:00 +12°C° 0.7 mm 4 mps 698 mmHg 79%
    04:00 +12°C° 0 mm 5 mps 698 mmHg 74%
    05:00 +10°C° 0 mm 5 mps 698 mmHg 70%
    06:00 +10°C° 0 mm 5 mps 699 mmHg 66%
    07:00 +12°C° 0 mm 5 mps 699 mmHg 63%
    08:00 +12°C° 0 mm 5 mps 700 mmHg 60%
    09:00 +12°C° 0 mm 5 mps 701 mmHg 57%
    10:00 +13°C° 0 mm 5 mps 701 mmHg 53%
    11:00 +14°C° 0 mm 5 mps 701 mmHg 49%
    12:00 +15°C° 0 mm 6 mps 702 mmHg 45%
    13:00 +15°C° 0 mm 5 mps 702 mmHg 44%
    14:00 +15°C° 0 mm 5 mps 702 mmHg 44%
    15:00 +15°C° 0 mm 4 mps 702 mmHg 43%
    16:00 +14°C° 0 mm 4 mps 702 mmHg 46%
    17:00 +13°C° 0 mm 3 mps 702 mmHg 49%
    18:00 +13°C° 0 mm 2 mps 703 mmHg 52%
    19:00 +13°C° 0 mm 2 mps 703 mmHg 55%
    20:00 +12°C° 0 mm 2 mps 704 mmHg 58%
    21:00 +12°C° 0 mm 2 mps 704 mmHg 60%
    22:00 +10°C° 0 mm 2 mps 704 mmHg 62%
    23:00 +10°C° 0 mm 2 mps 704 mmHg 64%

    21 Octubre, Lunes

    Tiempo Temperatura Precipitaciones Viento Presión Humedad
    00:00 +9°C° 0 mm 2 mps 704 mmHg 66%
    01:00 +9°C° 0 mm 2 mps 704 mmHg 67%
    02:00 +9°C° 0 mm 2 mps 704 mmHg 68%
    03:00 +8°C° 0 mm 2 mps 704 mmHg 69%
    04:00 +8°C° 0 mm 2 mps 704 mmHg 69%
    05:00 +8°C° 0 mm 3 mps 705 mmHg 70%
    06:00 +8°C° 0 mm 3 mps 705 mmHg 70%
    07:00 +9°C° 0 mm 3 mps 705 mmHg 65%
    08:00 +10°C° 0 mm 3 mps 705 mmHg 60%
    09:00 +11°C° 0 mm 4 mps 705 mmHg 55%
    10:00 +12°C° 0 mm 4 mps 705 mmHg 50%
    11:00 +13°C° 0 mm 4 mps 705 mmHg 45%
    12:00 +15°C° 0 mm 4 mps 705 mmHg 39%
    13:00 +16°C° 0 mm 3 mps 705 mmHg 37%
    14:00 +17°C° 0 mm 3 mps 705 mmHg 35%
    15:00 +17°C° 0 mm 3 mps 704 mmHg 33%
    16:00 +16°C° 0 mm 3 mps 704 mmHg 36%
    17:00 +14°C° 0 mm 3 mps 704 mmHg 38%
    18:00 +13°C° 0 mm 3 mps 704 mmHg 41%
    19:00 +13°C° 0 mm 4 mps 704 mmHg 45%
    20:00 +12°C° 0 mm 5 mps 704 mmHg 50%
    21:00 +10°C° 0 mm 6 mps 705 mmHg 54%
    22:00 +10°C° 0 mm 6 mps 705 mmHg 57%
    23:00 +10°C° 0 mm 6 mps 705 mmHg 60%

    22 Octubre, Martes

    Tiempo Temperatura Precipitaciones Viento Presión Humedad
    00:00 +9°C° 0 mm 5 mps 705 mmHg 62%
    01:00 +9°C° 0 mm 5 mps 704 mmHg 63%
    02:00 +9°C° 0 mm 5 mps 704 mmHg 64%
    03:00 +8°C° 0 mm 5 mps 703 mmHg 65%
    04:00 +8°C° 0 mm 5 mps 703 mmHg 65%
    05:00 +8°C° 0 mm 5 mps 703 mmHg 64%
    06:00 +8°C° 0 mm 5 mps 703 mmHg 63%
    07:00 +8°C° 0.3 mm 6 mps 703 mmHg 67%
    08:00 +9°C° 0.3 mm 6 mps 702 mmHg 70%
    09:00 +9°C° 0.3 mm 6 mps 702 mmHg 73%
    10:00 +9°C° 1.2 mm 6 mps 702 mmHg 75%
    11:00 +8°C° 1.2 mm 6 mps 702 mmHg 77%
    12:00 +8°C° 1.2 mm 5 mps 701 mmHg 79%
    13:00 +8°C° 1 mm 5 mps 701 mmHg 80%
    14:00 +8°C° 1 mm 4 mps 700 mmHg 82%
    15:00 +10°C° 1 mm 4 mps 700 mmHg 83%
    16:00 +10°C° 0.9 mm 4 mps 700 mmHg 84%
    17:00 +10°C° 0.9 mm 4 mps 699 mmHg 86%
    18:00 +10°C° 0.9 mm 4 mps 699 mmHg 87%
    19:00 +9°C° 0.7 mm 3 mps 699 mmHg 85%
    20:00 +9°C° 0.7 mm 3 mps 699 mmHg 84%
    21:00 +9°C° 0.7 mm 3 mps 699 mmHg 83%
    22:00 +9°C° 0.3 mm 2 mps 699 mmHg 84%
    23:00 +10°C° 0.3 mm 1 mps 698 mmHg 84%
    Mostrar más